sat.trackr.live / text

‹ back to catalog

SJ-11-06

NORAD 39624 · 2014-014A

PAYLOAD ACTIVE UNKNOWN

§ Identity

Operator
Country
PRC
Launch date
2014-03-31
Launch site
JSC
Launch vehicle
Mass (kg)
RCS (m²)
2.36

External: N2YO · Heavens-Above · Gunter

§ Orbital elements

Epoch: 2026-09-20T02:25:55.744032Z

Period
98.50 min
Inclination
97.9447°
Eccentricity
0.0014993
Mean motion
14.61923912 rev/d
Perigee alt
676.4 km
Apogee alt
697.6 km
Semi-major
7,065.1 km
B*
5.7499e-5
RAAN
286.2256°
Arg perigee
50.8017°
Mean anomaly
309.4514°
Rev number
66,456

§ Raw data

SJ-11-061 39624U 14014A   26263.10133963  .00000243  00000+0  57499-4 0  99952 39624  97.9447 286.2256 0014993  50.8017 309.4514 14.61923912664565

JSON: /api/v1/satellites/39624 · /tle

For live sub-satellite position, see the globe view (requires WebGL).

§ Visibility from observer

Set your observer location to see the next 7 days of passes ≥ 10°. The values pass through the URL so the page stays shareable.

No JS? Fill the form by hand. The geolocation button needs JavaScript.